Regional Weather Roundup
Issued by NWS Green Bay, WI

Home | Current Version | Previous Version | Graphics & Text | Print | Product List | Glossary Off
Versions: 1 2 3 4 5 6 7 8 9 10 11 12 13 14 15 16 17 18 19 20 21 22 23 24 25 26 27 28 29 30 31 32 33 34 35 36 37 38 39 40 41 42 43 44 45 46 47 48 49 50

570
ASUS43 KGRB 270000
RWRGRB

NORTH-CENTRAL AND NORTHEAST WISCONSIN REGIONAL WEATHER ROUNDUP
NATIONAL WEATHER SERVICE GREEN BAY WI
700 PM CDT MON JUN 26 2017

WIZ005-009-010>012-018-019-270100-
NORTH CENTRAL WISCONSIN

CITY           SKY/WX    TMP DP  RH WIND       PRES   REMARKS
IRONWOOD       SUNNY     61  45  55 W9        30.04S
MANITOWISH WTR NOT AVBL
ARBOR VITAE    NOT AVBL
EAGLE RIVER    NOT AVBL
LAND O LAKES   SUNNY     62  40  45 NW7       30.05S
RHINELANDER    SUNNY     62  42  47 VRB6      30.04F
PHILLIPS       NOT AVBL
ANTIGO         NOT AVBL
TOMAHAWK       NOT AVBL
MERRILL        MOSUNNY   65  44  47 NW8       30.05S
$$

WIZ013-073-270100-
NORTHEAST WISCONSIN

CITY           SKY/WX    TMP DP  RH WIND       PRES   REMARKS
IRON MOUNTAIN  SUNNY     63  43  48 NW6       30.00F
MARINETTE      MOSUNNY   60  50  69 VRB5      30.02S
$$

WIZ017-030-035>037-045-270100-
CENTRAL WISCONSIN

CITY           SKY/WX    TMP DP  RH WIND       PRES   REMARKS
MEDFORD        NOT AVBL
WAUSAU         MOSUNNY   63  43  48 NW5       30.03F
MOSINEE        NOT AVBL
MARSHFIELD     LGT RAIN  60  47  61 NW10G22   30.06S
WISC RAPIDS    SUNNY     66  46  48 NW7       30.07S
STEVENS POINT  NOT AVBL
WAUPACA        SUNNY     66  43  43 N7        30.05S
SHAWANO        NOT AVBL
CLINTONVILLE   MOSUNNY   63  43  48 N7        30.04S
WAUTOMA        SUNNY     64  45  49 N7        30.06S
$$

WIZ038-039-048-051-270100-
FOX VALLEY

CITY           SKY/WX    TMP DP  RH WIND       PRES   REMARKS
NWS GREEN BAY  CLOUDY    59  56  89 NW7       30.04S
APPLETON       PTSUNNY   57  46  67 N8        30.03S
OSHKOSH        CLOUDY    61  47  59 N9        30.04S
FOND DU LAC    PTSUNNY   61  46  57 N9        30.05S
$$

WIZ022-050-052-270100-
EAST CENTRAL WISCONSIN

CITY           SKY/WX    TMP DP  RH WIND       PRES   REMARKS
EPHRAIM        NOT AVBL
WASHINGTON ISL NOT AVBL
STURGEON BAY     N/A     58  50  75 NW9         N/A
MANITOWOC      NOT AVBL
SHEBOYGAN      MOSUNNY   58  53  84 NW13      30.02S
$$

LMZ563-521-522-541>543-270100-
LAKESHORE

STATION/POSITION TIME  TEMP    WIND        PRES    VSBY  WAVE
                       AIR SEA DIR/SP/G                  HT/PER
                 (UTC) (F)     (DEG/KT/KT) (MB)    (MI)  (FT/S)
SHEBOYGAN LKSHOR 2300   58     320/ 17/ 20 1016.5R
KEWAUNEE LKSHORE 2330   58     350/  8/ 12 1016.0R
NORTHPORT PIER   2340   60     330/  5/  8 1015.9R
N MID LAKE BUOY  2250   56 56  330/ 14/ 16 1015.8R         2/ 4
S GREEN BAY BUOY 2330   59     330/ 10/ 12 1016.4R
CHAMBERS ISLAND  2340   62     280/  3/  6 1015.6S
MENOMINEE LKSHOR 2330          340/  7/ 11 1015.5R
$$




USA.gov is the U.S. government's official web portal to all federal, state and local government web resources and services.